Location: Altleiningen
(49.5078°N, 8.0741°E)
Time: 00:14:33
(UTC+00:00)

GP-B - Pass Details

Date: 03 March 2021
Orbit: 631 x 635 km, 89.8° (Epoch: 12 April)

Event Time Altitude Azimuth Distance (km) Brightness Sun altitude
Rises 19:22:32 0° 197° (SSW) 2,920 6.5 -21.5°
Reaches altitude 10° 19:24:52 10° 205° (SSW) 2,017 5.8 -21.9°
Maximum altitude 19:29:02 40° 275° (W) 950 4.5 -22.5°
Drops below altitude 10° 19:33:15 10° 345° (NNW) 2,033 6.1 -23.2°
Sets 19:35:36 0° 353° (N) 2,947 6.9 -23.5°
